| time (UTC) | temp C | wind direction | speed KPH | gust KPH | rain 1hr cm | rain 24hr cm | rain mn cm | humidity % | barometer mb |
| 20260902184816 | 23 | 271 | 25.7 | 41.8 | 0.00 | 0.00 | 0.00 | 20 | 1017.2 |
| 20260902184319 | 23 | 280 | 22.5 | 41.8 | 0.00 | 0.00 | 0.00 | 20 | 1017.3 |
| 20260902183324 | 23 | 268 | 27.4 | 41.8 | 0.00 | 0.00 | 0.00 | 20 | 1017.4 |
| 20260902182828 | 23 | 255 | 25.7 | 40.2 | 0.00 | 0.00 | 0.00 | 20 | 1017.4 |
| 20260902182331 | 23 | 263 | 19.3 | 41.8 | 0.00 | 0.00 | 0.00 | 21 | 1017.4 |
| 20260902181833 | 22 | 272 | 29.0 | 43.5 | 0.00 | 0.00 | 0.00 | 21 | 1017.2 |
| 20260902180839 | 22 | 263 | 25.7 | 45.1 | 0.00 | 0.00 | 0.00 | 22 | 1017.3 |
| 20260902180342 | 22 | 262 | 25.7 | 43.5 | 0.00 | 0.00 | 0.00 | 22 | 1017.3 |
| 20260902175348 | 22 | 275 | 29.0 | 46.7 | 0.00 | 0.00 | 0.00 | 22 | 1017.2 |
| 20260902174852 | 22 | 264 | 25.7 | 46.7 | 0.00 | 0.00 | 0.00 | 22 | 1017.2 |
| 20260902174354 | 21 | 265 | 29.0 | 43.5 | 0.00 | 0.00 | 0.00 | 21 | 1017.2 |
| 20260902173858 | 21 | 271 | 33.8 | 43.5 | 0.00 | 0.00 | 0.00 | 21 | 1017.1 |
| 20260902173400 | 21 | 263 | 29.0 | 43.5 | 0.00 | 0.00 | 0.00 | 21 | 1017.2 |
| 20260902172903 | 21 | 269 | 30.6 | 46.7 | 0.00 | 0.00 | 0.00 | 21 | 1017.0 |
| 20260902172406 | 21 | 269 | 32.2 | 46.7 | 0.00 | 0.00 | 0.00 | 20 | 1017.1 |
| 20260902170916 | 21 | 272 | 29.0 | 46.7 | 0.00 | 0.00 | 0.00 | 41 | 1016.8 |
| 20260902170418 | 21 | 272 | 27.4 | 46.7 | 0.00 | 0.00 | 0.00 | 21 | 1016.9 |
| 20260902165424 | 21 | 265 | 32.2 | 46.7 | 0.00 | 0.00 | 0.00 | 21 | 1017.0 |
| 20260902164928 | 20 | 273 | 29.0 | 54.7 | 0.00 | 0.00 | 0.00 | 22 | 1016.8 |
| 20260902164430 | 20 | 270 | 32.2 | 54.7 | 0.00 | 0.00 | 0.00 | 22 | 1016.7 |
| 20260902162940 | 20 | 266 | 30.6 | 43.5 | 0.00 | 0.00 | 0.00 | 22 | 1016.8 |
| 20260902161946 | 20 | 264 | 29.0 | 41.8 | 0.00 | 0.00 | 0.00 | 22 | 1016.8 |
| 20260902161448 | 20 | 266 | 25.7 | 41.8 | 0.00 | 0.00 | 0.00 | 23 | 1016.8 |
| 20260902160952 | 20 | 272 | 27.4 | 38.6 | 0.00 | 0.00 | 0.00 | 23 | 1016.6 |
| 20260902160454 | 20 | 271 | 24.1 | 37.0 | 0.00 | 0.00 | 0.00 | 23 | 1016.7 |
| 20260902155958 | 20 | 270 | 24.1 | 35.4 | 0.00 | 0.00 | 0.00 | 23 | 1016.7 |
| 20260902155501 | 20 | 262 | 20.9 | 35.4 | 0.00 | 0.00 | 0.00 | 23 | 1016.6 |
| 20260902153513 | 18 | 260 | 24.1 | 38.6 | 0.00 | 0.00 | 0.00 | 24 | 1016.6 |
| 20260902153016 | 18 | 257 | 27.4 | 38.6 | 0.00 | 0.00 | 0.00 | 24 | 1016.4 |
| 20260902152022 | 18 | 255 | 25.7 | 41.8 | 0.00 | 0.00 | 0.00 | 24 | 1016.2 |
| 20260902151525 | 18 | 256 | 24.1 | 41.8 | 0.00 | 0.00 | 0.00 | 24 | 1016.3 |
| 20260902151028 | 18 | 260 | 25.7 | 41.8 | 0.00 | 0.00 | 0.00 | 25 | 1016.2 |
| 20260902150531 | 18 | 257 | 24.1 | 37.0 | 0.00 | 0.00 | 0.00 | 25 | 1016.1 |
| 20260902150034 | 17 | 254 | 25.7 | 38.6 | 0.00 | 0.00 | 0.00 | 25 | 1016.2 |
| 20260902145537 | 17 | 260 | 25.7 | 38.6 | 0.00 | 0.00 | 0.00 | 25 | 1016.1 |
| 20260902145040 | 17 | 255 | 24.1 | 37.0 | 0.00 | 0.00 | 0.00 | 26 | 1016.2 |
| 20260902144543 | 17 | 257 | 25.7 | 37.0 | 0.00 | 0.00 | 0.00 | 25 | 1016.2 |
| 20260902143549 | 17 | 260 | 25.7 | 38.6 | 0.00 | 0.00 | 0.00 | 25 | 1016.2 |
| 20260902142555 | 17 | 256 | 24.1 | 38.6 | 0.00 | 0.00 | 0.00 | 26 | 1016.2 |
| 20260902142058 | 16 | 257 | 24.1 | 38.6 | 0.00 | 0.00 | 0.00 | 26 | 1016.3 |
| 20260902141104 | 16 | 258 | 25.7 | 38.6 | 0.00 | 0.00 | 0.00 | 26 | 1016.2 |
| 20260902140607 | 16 | 258 | 27.4 | 37.0 | 0.00 | 0.00 | 0.00 | 26 | 1016.2 |
| 20260902135613 | 16 | 255 | 27.4 | 43.5 | 0.00 | 0.00 | 0.00 | 26 | 1015.9 |
| 20260902135116 | 16 | 255 | 27.4 | 43.5 | 0.00 | 0.00 | 0.00 | 26 | 1016.0 |
| 20260902134619 | 16 | 256 | 25.7 | 38.6 | 0.00 | 0.00 | 0.00 | 26 | 1016.0 |
| 20260902134122 | 16 | 256 | 29.0 | 38.6 | 0.00 | 0.00 | 0.00 | 26 | 1015.9 |
| 20260902133625 | 16 | 257 | 29.0 | 38.6 | 0.00 | 0.00 | 0.00 | 26 | 1015.8 |
| 20260902133128 | 16 | 254 | 29.0 | 38.6 | 0.00 | 0.00 | 0.00 | 27 | 1015.8 |
| 20260902132631 | 16 | 253 | 27.4 | 38.6 | 0.00 | 0.00 | 0.00 | 27 | 1015.7 |
| 20260902132134 | 16 | 250 | 25.7 | 38.6 | 0.00 | 0.00 | 0.00 | 27 | 1015.6 |
| 20260902131637 | 16 | 254 | 25.7 | 37.0 | 0.00 | 0.00 | 0.00 | 27 | 1015.5 |
| 20260902131140 | 16 | 248 | 25.7 | 38.6 | 0.00 | 0.00 | 0.00 | 27 | 1015.6 |
| 20260902125650 | 16 | 255 | 29.0 | 43.5 | 0.00 | 0.00 | 0.00 | 27 | 1015.3 |
| 20260902124158 | 16 | 257 | 29.0 | 40.2 | 0.00 | 0.00 | 0.00 | 27 | 1015.4 |
| 20260902123702 | 16 | 263 | 32.2 | 41.8 | 0.00 | 0.00 | 0.00 | 27 | 1015.4 |
| 20260902123204 | 17 | 256 | 29.0 | 41.8 | 0.00 | 0.00 | 0.00 | 27 | 1015.4 |
| 20260902122707 | 16 | 260 | 27.4 | 38.6 | 0.00 | 0.00 | 0.00 | 26 | 1015.4 |
| 20260902122210 | 17 | 256 | 29.0 | 38.6 | 0.00 | 0.00 | 0.00 | 27 | 1015.4 |
| 20260902121216 | 17 | 257 | 32.2 | 40.2 | 0.00 | 0.00 | 0.00 | 27 | 1015.4 |
| 20260902120719 | 17 | 256 | 27.4 | 40.2 | 0.00 | 0.00 | 0.00 | 27 | 1015.4 |
| 20260902115725 | 17 | 257 | 30.6 | 41.8 | 0.00 | 0.00 | 0.00 | 26 | 1015.5 |
| 20260902112246 | 16 | 255 | 30.6 | 40.2 | 0.00 | 0.00 | 0.00 | 28 | 1015.4 |
| 20260902111749 | 16 | 251 | 25.7 | 38.6 | 0.00 | 0.00 | 0.00 | 28 | 1015.5 |
| 20260902111252 | 16 | 250 | 29.0 | 41.8 | 0.00 | 0.00 | 0.00 | 28 | 1015.6 |
| 20260902110755 | 16 | 250 | 29.0 | 41.8 | 0.00 | 0.00 | 0.00 | 28 | 1015.5 |
| 20260902110258 | 16 | 253 | 30.6 | 40.2 | 0.00 | 0.00 | 0.00 | 28 | 1015.4 |
| 20260902105801 | 16 | 248 | 29.0 | 38.6 | 0.00 | 0.00 | 0.00 | 28 | 1015.6 |
| 20260902105306 | 16 | 259 | 30.6 | 40.2 | 0.00 | 0.00 | 0.00 | 28 | 1015.5 |
| 20260902104807 | 16 | 255 | 30.6 | 40.2 | 0.00 | 0.00 | 0.00 | 28 | 1015.6 |
| 20260902104310 | 16 | 257 | 33.8 | 41.8 | 0.00 | 0.00 | 0.00 | 28 | 1015.6 |
| 20260902103813 | 16 | 261 | 33.8 | 41.8 | 0.00 | 0.00 | 0.00 | 28 | 1015.6 |
| 20260902103316 | 16 | 260 | 30.6 | 41.8 | 0.00 | 0.00 | 0.00 | 28 | 1015.6 |
| 20260902102819 | 16 | 259 | 30.6 | 45.1 | 0.00 | 0.00 | 0.00 | 28 | 1015.7 |
| 20260902102322 | 16 | 258 | 33.8 | 45.1 | 0.00 | 0.00 | 0.00 | 28 | 1015.7 |
| 20260902101825 | 16 | 259 | 32.2 | 41.8 | 0.00 | 0.00 | 0.00 | 28 | 1015.8 |
| 20260902101328 | 16 | 257 | 30.6 | 41.8 | 0.00 | 0.00 | 0.00 | 28 | 1015.8 |
| 20260902100831 | 16 | 251 | 30.6 | 41.8 | 0.00 | 0.00 | 0.00 | 28 | 1015.8 |
| 20260902100334 | 16 | 258 | 30.6 | 40.2 | 0.00 | 0.00 | 0.00 | 28 | 1015.8 |
| 20260902095837 | 16 | 253 | 29.0 | 41.8 | 0.00 | 0.00 | 0.00 | 28 | 1015.8 |
| 20260902094843 | 16 | 258 | 30.6 | 43.5 | 0.00 | 0.00 | 0.00 | 28 | 1015.8 |
| 20260902094346 | 16 | 259 | 30.6 | 45.1 | 0.00 | 0.00 | 0.00 | 28 | 1015.9 |
| 20260902093849 | 16 | 261 | 32.2 | 45.1 | 0.00 | 0.00 | 0.00 | 28 | 1015.8 |
| 20260902093352 | 16 | 259 | 32.2 | 41.8 | 0.00 | 0.00 | 0.00 | 28 | 1015.8 |
| 20260902092358 | 16 | 260 | 30.6 | 43.5 | 0.00 | 0.00 | 0.00 | 28 | 1015.9 |
| 20260902091404 | 16 | 255 | 30.6 | 41.8 | 0.00 | 0.00 | 0.00 | 28 | 1016.0 |
| 20260902090907 | 16 | 255 | 27.4 | 41.8 | 0.00 | 0.00 | 0.00 | 28 | 1015.9 |
| 20260902090410 | 16 | 256 | 25.7 | 40.2 | 0.00 | 0.00 | 0.00 | 28 | 1016.1 |
| 20260902085416 | 16 | 255 | 27.4 | 40.2 | 0.00 | 0.00 | 0.00 | 28 | 1016.3 |
| 20260902084919 | 16 | 258 | 30.6 | 38.6 | 0.00 | 0.00 | 0.00 | 28 | 1016.2 |
| 20260902083428 | 16 | 260 | 27.4 | 38.6 | 0.00 | 0.00 | 0.00 | 28 | 1016.1 |
| 20260902082931 | 16 | 257 | 27.4 | 38.6 | 0.00 | 0.00 | 0.00 | 27 | 1016.2 |
| 20260902082434 | 16 | 251 | 27.4 | 38.6 | 0.00 | 0.00 | 0.00 | 27 | 1016.1 |
| 20260902081937 | -17 | 255 | 30.6 | 38.6 | 0.00 | 0.00 | 0.00 | 27 | 1016.2 |
| 20260902081440 | 16 | 256 | 29.0 | 38.6 | 0.00 | 0.00 | 0.00 | 27 | 1016.2 |
| 20260902080943 | 16 | 256 | 27.4 | 38.6 | 0.00 | 0.00 | 0.00 | 27 | 1016.2 |
| 20260902080446 | 16 | 258 | 27.4 | 40.2 | 0.00 | 0.00 | 0.00 | 27 | 1016.2 |
| 20260902075949 | 16 | 256 | 25.7 | 41.8 | 0.00 | 0.00 | 0.00 | 26 | 1016.1 |
| 20260902075452 | 16 | 255 | 30.6 | 41.8 | 0.00 | 0.00 | 0.00 | 26 | 1016.1 |
| 20260902074458 | 16 | 257 | 29.0 | 38.6 | 0.00 | 0.00 | 0.00 | 26 | 1016.2 |
| 20260902074001 | 16 | 259 | 29.0 | 38.6 | 0.00 | 0.00 | 0.00 | 27 | 1016.2 |
| 20260902072510 | 16 | 254 | 25.7 | 38.6 | 0.00 | 0.00 | 0.00 | 29 | 1016.0 |
| 20260902072013 | 16 | 259 | 27.4 | 38.6 | 0.00 | 0.00 | 0.00 | 29 | 1016.0 |
| 20260902071516 | 16 | 258 | 29.0 | 38.6 | 0.00 | 0.00 | 0.00 | 30 | 1015.8 |
| 20260902070025 | 16 | 261 | 27.4 | 38.6 | 0.00 | 0.00 | 0.00 | 33 | 1015.8 |
| 20260902065528 | 16 | 261 | 27.4 | 37.0 | 0.00 | 0.00 | 0.00 | 33 | 1016.6 |
| 20260902065031 | 16 | 260 | 24.1 | 37.0 | 0.00 | 0.00 | 0.00 | 33 | 1016.6 |
| 20260902064534 | 16 | 263 | 25.7 | 38.6 | 0.00 | 0.00 | 0.00 | 34 | 1016.6 |
| 20260902064037 | 16 | 262 | 27.4 | 38.6 | 0.00 | 0.00 | 0.00 | 34 | 1016.7 |
| 20260902063540 | 16 | 261 | 27.4 | 40.2 | 0.00 | 0.00 | 0.00 | 35 | 1016.6 |
| 20260902062049 | 16 | 265 | 27.4 | 38.6 | 0.00 | 0.00 | 0.00 | 35 | 1016.7 |
| 20260902061552 | 16 | 262 | 29.0 | 38.6 | 0.00 | 0.00 | 0.00 | 35 | 1016.6 |
| 20260902061055 | 16 | 262 | 27.4 | 38.6 | 0.00 | 0.00 | 0.00 | 34 | 1016.4 |
| 20260902060558 | 16 | 252 | 27.4 | 37.0 | 0.00 | 0.00 | 0.00 | 34 | 1016.5 |
| 20260902060101 | 16 | 261 | 27.4 | 37.0 | 0.00 | 0.00 | 0.00 | 34 | 1016.5 |
| 20260902055604 | 16 | 256 | 29.0 | 38.6 | 0.00 | 0.00 | 0.00 | 34 | 1016.5 |
| 20260902055107 | 16 | 259 | 29.0 | 38.6 | 0.00 | 0.00 | 0.00 | 33 | 1016.4 |
| 20260902054610 | 16 | 262 | 25.7 | 38.6 | 0.00 | 0.00 | 0.00 | 32 | 1016.4 |
| 20260902053119 | 16 | 256 | 25.7 | 41.8 | 0.00 | 0.00 | 0.00 | 31 | 1016.4 |
| 20260902052622 | 16 | 255 | 29.0 | 38.6 | 0.00 | 0.00 | 0.00 | 32 | 1016.4 |
| 20260902052125 | 16 | 258 | 24.1 | 38.6 | 0.00 | 0.00 | 0.00 | 31 | 1016.4 |
| 20260902051628 | 16 | 259 | 25.7 | 38.6 | 0.00 | 0.00 | 0.00 | 31 | 1016.4 |
| 20260902051131 | 16 | 258 | 29.0 | 38.6 | 0.00 | 0.00 | 0.00 | 32 | 1016.4 |
| 20260902050137 | 16 | 253 | 24.1 | 35.4 | 0.00 | 0.00 | 0.00 | 33 | 1016.5 |
| 20260902045640 | 16 | 255 | 25.7 | 35.4 | 0.00 | 0.00 | 0.00 | 34 | 1016.4 |
| 20260902044646 | 15 | 249 | 24.1 | 33.8 | 0.00 | 0.00 | 0.00 | 40 | 1016.4 |
| 20260902044149 | 15 | 248 | 22.5 | 32.2 | 0.00 | 0.00 | 0.00 | 45 | 1016.4 |
| 20260902043652 | 15 | 249 | 22.5 | 32.2 | 0.00 | 0.00 | 0.00 | 49 | 1016.4 |
| 20260902043155 | 15 | 249 | 24.1 | 32.2 | 0.00 | 0.00 | 0.00 | 53 | 1016.3 |
| 20260902042201 | 15 | 249 | 20.9 | 32.2 | 0.00 | 0.00 | 0.00 | 54 | 1016.0 |
| 20260902040213 | 15 | 264 | 20.9 | 29.0 | 0.00 | 0.00 | 0.00 | 66 | 1015.8 |
| 20260902035716 | 15 | 263 | 19.3 | 29.0 | 0.00 | 0.00 | 0.00 | 68 | 1015.7 |
| 20260902035219 | 15 | 261 | 20.9 | 32.2 | 0.00 | 0.00 | 0.00 | 67 | 1015.7 |
| 20260902034722 | 15 | 253 | 24.1 | 33.8 | 0.00 | 0.00 | 0.00 | 67 | 1015.6 |
| 20260902034225 | 15 | 254 | 22.5 | 33.8 | 0.00 | 0.00 | 0.00 | 67 | 1015.4 |
| 20260902033728 | 15 | 257 | 20.9 | 29.0 | 0.00 | 0.00 | 0.00 | 67 | 1015.3 |
| 20260902032734 | 15 | 257 | 24.1 | 37.0 | 0.00 | 0.00 | 0.00 | 64 | 1015.3 |
| 20260902032237 | 16 | 260 | 22.5 | 35.4 | 0.00 | 0.00 | 0.00 | 63 | 1015.2 |
| 20260902031740 | 16 | 263 | 24.1 | 37.0 | 0.00 | 0.00 | 0.00 | 63 | 1015.2 |
| 20260902030746 | 16 | 262 | 24.1 | 37.0 | 0.00 | 0.00 | 0.00 | 61 | 1015.1 |
| 20260902025752 | 16 | 263 | 24.1 | 33.8 | 0.00 | 0.00 | 0.00 | 60 | 1015.1 |
| 20260902025255 | 16 | 258 | 22.5 | 33.8 | 0.00 | 0.00 | 0.00 | 59 | 1015.1 |
| 20260902024758 | 16 | 262 | 24.1 | 32.2 | 0.00 | 0.00 | 0.00 | 58 | 1015.0 |
| 20260902023804 | 17 | 261 | 22.5 | 35.4 | 0.00 | 0.00 | 0.00 | 55 | 1015.0 |
| 20260902022810 | 17 | 260 | 24.1 | 38.6 | 0.00 | 0.00 | 0.00 | 53 | 1014.8 |
| 20260902022313 | 17 | 269 | 29.0 | 38.6 | 0.00 | 0.00 | 0.00 | 52 | 1014.9 |
| 20260902021816 | 18 | 265 | 29.0 | 38.6 | 0.00 | 0.00 | 0.00 | 52 | 1014.7 |
| 20260902020325 | 18 | 264 | 29.0 | 40.2 | 0.00 | 0.00 | 0.00 | 51 | 1014.7 |
| 20260902015828 | 18 | 261 | 22.5 | 38.6 | 0.00 | 0.00 | 0.00 | 50 | 1014.8 |
| 20260902015331 | 19 | 257 | 25.7 | 40.2 | 0.00 | 0.00 | 0.00 | 49 | 1014.8 |
| 20260902014834 | 19 | 257 | 29.0 | 40.2 | 0.00 | 0.00 | 0.00 | 48 | 1014.7 |
| 20260902014337 | 20 | 260 | 19.3 | 40.2 | 0.00 | 0.00 | 0.00 | 47 | 1014.8 |
| 20260902013840 | 20 | 269 | 30.6 | 40.2 | 0.00 | 0.00 | 0.00 | 46 | 1014.8 |
| 20260902013343 | 20 | 255 | 25.7 | 38.6 | 0.00 | 0.00 | 0.00 | 45 | 1014.9 |
| 20260902012349 | 20 | 263 | 27.4 | 40.2 | 0.00 | 0.00 | 0.00 | 44 | 1014.9 |
| 20260902011852 | 21 | 254 | 29.0 | 40.2 | 0.00 | 0.00 | 0.00 | 44 | 1014.9 |
| 20260902011355 | 21 | 257 | 30.6 | 46.7 | 0.00 | 0.00 | 0.00 | 44 | 1014.9 |
| 20260902010858 | 21 | 272 | 20.9 | 46.7 | 0.00 | 0.00 | 0.00 | 44 | 1015.2 |
| 20260902010401 | 21 | 267 | 29.0 | 46.7 | 0.00 | 0.00 | 0.00 | 43 | 1014.8 |
| 20260902005407 | 22 | 260 | 22.5 | 38.6 | 0.00 | 0.00 | 0.00 | 43 | 1015.8 |
| 20260902004910 | 22 | 265 | 27.4 | 38.6 | 0.00 | 0.00 | 0.00 | 43 | 1015.9 |
| 20260902004413 | 22 | 256 | 22.5 | 38.6 | 0.00 | 0.00 | 0.00 | 43 | 1015.8 |
| 20260902003916 | 22 | 265 | 27.4 | 41.8 | 0.00 | 0.00 | 0.00 | 43 | 1015.8 |
| 20260902003419 | 22 | 263 | 27.4 | 41.8 | 0.00 | 0.00 | 0.00 | 43 | 1015.7 |
| 20260902001928 | 22 | 265 | 24.1 | 43.5 | 0.00 | 0.00 | 0.00 | 43 | 1015.8 |
| 20260902001431 | 23 | 265 | 29.0 | 43.5 | 0.00 | 0.00 | 0.00 | 43 | 1015.8 |
| 20260902000437 | 23 | 268 | 25.7 | 38.6 | 0.00 | 0.00 | 0.00 | 43 | 1016.0 |
| 20260901235940 | 23 | 261 | 27.4 | 38.6 | 0.00 | 0.00 | 0.00 | 42 | 1016.0 |
| 20260901235443 | 23 | 275 | 19.3 | 38.6 | 0.00 | 0.00 | 0.00 | 42 | 1016.3 |
| 20260901234449 | 23 | 258 | 30.6 | 43.5 | 0.00 | 0.00 | 0.00 | 42 | 1016.2 |
| 20260901233952 | 23 | 258 | 24.1 | 38.6 | 0.00 | 0.00 | 0.00 | 43 | 1016.1 |
| 20260901233455 | 23 | 261 | 29.0 | 41.8 | 0.00 | 0.00 | 0.00 | 43 | 1016.0 |
| 20260901232958 | 23 | 255 | 27.4 | 41.8 | 0.00 | 0.00 | 0.00 | 43 | 1016.2 |
| 20260901230513 | 25 | 264 | 29.0 | 40.2 | 0.00 | 0.00 | 0.00 | 42 | 1016.4 |
| 20260901230016 | 25 | 270 | 24.1 | 38.6 | 0.00 | 0.00 | 0.00 | 42 | 1016.4 |
| 20260901225519 | 25 | 253 | 25.7 | 38.6 | 0.00 | 0.00 | 0.00 | 40 | 1016.4 |
| 20260901225022 | 25 | 263 | 20.9 | 41.8 | 0.00 | 0.00 | 0.00 | 41 | 1016.2 |
| 20260901224525 | 25 | 266 | 24.1 | 41.8 | 0.00 | 0.00 | 0.00 | 41 | 1016.3 |
| 20260901223531 | 25 | 262 | 24.1 | 41.8 | 0.00 | 0.00 | 0.00 | 38 | 1016.4 |
| 20260901223034 | 25 | 268 | 29.0 | 41.8 | 0.00 | 0.00 | 0.00 | 38 | 1016.4 |
| 20260901221543 | 26 | 275 | 19.3 | 37.0 | 0.00 | 0.00 | 0.00 | 38 | 1016.6 |
| 20260901221046 | 26 | 271 | 19.3 | 37.0 | 0.00 | 0.00 | 0.00 | 38 | 1016.6 |
| 20260901220549 | 25 | 261 | 19.3 | 41.8 | 0.00 | 0.00 | 0.00 | 39 | 1016.6 |
| 20260901220052 | 25 | 269 | 30.6 | 41.8 | 0.00 | 0.00 | 0.00 | 37 | 1016.6 |
| 20260901215058 | 25 | 279 | 22.5 | 41.8 | 0.00 | 0.00 | 0.00 | 37 | 1016.8 |
| 20260901213607 | 26 | 259 | 20.9 | 32.2 | 0.00 | 0.00 | 0.00 | 36 | 1016.9 |
| 20260901213110 | 25 | 257 | 20.9 | 38.6 | 0.00 | 0.00 | 0.00 | 36 | 1017.1 |
| 20260901212613 | 25 | 259 | 25.7 | 41.8 | 0.00 | 0.00 | 0.00 | 35 | 1017.2 |
| 20260901212116 | 25 | 257 | 27.4 | 41.8 | 0.00 | 0.00 | 0.00 | 35 | 1017.1 |
| 20260901211619 | 26 | 231 | 25.7 | 38.6 | 0.00 | 0.00 | 0.00 | 34 | 1017.2 |
| 20260901211122 | 26 | 247 | 29.0 | 38.6 | 0.00 | 0.00 | 0.00 | 34 | 1017.2 |
| 20260901210128 | 26 | 271 | 25.7 | 37.0 | 0.00 | 0.00 | 0.00 | 33 | 1017.3 |
| 20260901205631 | 26 | 227 | 19.3 | 33.8 | 0.00 | 0.00 | 0.00 | 33 | 1017.5 |
| 20260901205134 | 26 | 231 | 24.1 | 33.8 | 0.00 | 0.00 | 0.00 | 34 | 1017.4 |
| 20260901204637 | 26 | 278 | 17.7 | 37.0 | 0.00 | 0.00 | 0.00 | 33 | 1017.4 |
| 20260901203643 | 26 | 259 | 22.5 | 32.2 | 0.00 | 0.00 | 0.00 | 33 | 1017.5 |
| 20260901203146 | 26 | 257 | 17.7 | 32.2 | 0.00 | 0.00 | 0.00 | 33 | 1017.5 |
| 20260901202649 | 26 | 270 | 16.1 | 32.2 | 0.00 | 0.00 | 0.00 | 33 | 1017.7 |
| 20260901202152 | 26 | 236 | 16.1 | 32.2 | 0.00 | 0.00 | 0.00 | 34 | 1017.7 |
| 20260901201158 | 26 | 250 | 17.7 | 32.2 | 0.00 | 0.00 | 0.00 | 35 | 1017.8 |
| 20260901200701 | 26 | 249 | 17.7 | 33.8 | 0.00 | 0.00 | 0.00 | 34 | 1017.7 |
| 20260901200204 | 26 | 264 | 22.5 | 37.0 | 0.00 | 0.00 | 0.00 | 34 | 1017.6 |
| 20260901194713 | 26 | 253 | 17.7 | 33.8 | 0.00 | 0.00 | 0.00 | 35 | 1017.7 |
| 20260901194216 | 25 | 240 | 16.1 | 41.8 | 0.00 | 0.00 | 0.00 | 35 | 1017.0 |
| 20260901193719 | 25 | 256 | 22.5 | 41.8 | 0.00 | 0.00 | 0.00 | 33 | 1017.0 |
| 20260901193222 | 26 | 271 | 19.3 | 32.2 | 0.00 | 0.00 | 0.00 | 33 | 1016.9 |
| 20260901192228 | 26 | 235 | 17.7 | 33.8 | 0.00 | 0.00 | 0.00 | 32 | 1017.1 |
| 20260901191234 | 25 | 234 | 17.7 | 33.8 | 0.00 | 0.00 | 0.00 | 32 | 1017.2 |
| 20260901190737 | 25 | 238 | 17.7 | 33.8 | 0.00 | 0.00 | 0.00 | 31 | 1017.1 |
| 20260901190240 | 25 | 269 | 20.9 | 35.4 | 0.00 | 0.00 | 0.00 | 32 | 1017.2 |